CAPE
710 815 865 888 615 0 0 0 1 8 22 32 33 56 216 304 299 646 847 905 894 893 856 722 886 1105 1247 1274 1196 1215 1317 1340 1546 1732 1802 1794 1621 1412 1308 1521 1629 1798 1989 1919 2050 2171 2233 2232 2255 2296 2467 2603 2574 2609 2682 2809 2872 2864 2810 2941 2778 2587 2365
610 859 895 895 796 200 0 0 0 0 12 45 42 60 194 380 332 384 728 882 867 883 918 806 893 1013 1142 1289 1283 1281 1387 1403 1539 1943 1879 1933 1992 1860 1549 1662 1723 1770 1832 1768 1997 2236 2278 2344 2352 2266 2385 2588 2707 2692 2726 2797 2847 2824 2788 2895 2964 2726 2510
507 764 842 844 838 798 79 75 0 0 0 15 53 71 179 370 493 482 578 800 770 803 869 789 859 956 1079 1168 1336 1375 1462 1588 1577 1811 1948 1947 1924 1861 1695 1762 1912 1770 1715 1760 1934 2188 2332 2360 2466 2378 2336 2435 2627 2801 2830 2849 2896 2902 2823 2961 3013 2896 2702
649 809 939 872 702 697 867 722 752 256 1 0 9 66 165 401 524 527 547 759 770 844 947 756 782 960 1067 1038 1138 1346 1455 1575 1687 1779 1898 1920 1920 1755 1631 1705 2095 2015 1834 1906 2019 2105 2300 2369 2440 2492 3062 2522 2593 2778 2952 2961 3004 3088 3126 3208 3225 3122 2998
856 751 754 819 487 798 867 622 732 958 946 86 4 29 185 446 559 563 562 732 748 888 1081 848 792 1018 1126 1093 1013 1053 1192 1300 1413 1831 1945 1969 1990 1976 1726 1733 2039 2160 2091 2020 2185 2231 2212 2339 2400 2418 2482 2656 2650 2721 2946 3104 3098 3197 3306 3467 3484 3423 3379
958 850 824 618 542 728 772 1158 1146 938 1039 700 490 260 215 596 675 630 586 839 773 773 1144 1023 830 1113 1215 1254 1197 1143 1124 1171 1225 1572 1966 2042 2056 2099 2055 1879 2025 2136 2184 2105 2171 2336 2288 2273 2350 2409 2420 2514 2624 2654 2764 3044 3268 3269 3253 3389 3544 3553 3491
939 908 983 779 616 549 700 750 1152 1371 983 655 1032 1552 679 679 846 804 672 830 1048 790 1009 1342 1018 1073 1187 1333 1395 1381 1288 1231 1230 1332 1724 1967 2057 2120 2129 2143 2088 2186 2259 2242 2168 2223 2367 2405 2358 2333 2324 2380 2549 2599 2681 2788 3099 3298 3321 3284 3399 3508 3521
1024 1071 1049 867 626 621 686 714 972 1171 916 822 1045 961 801 786 949 986 1029 1325 1551 1303 1143 1471 1620 1397 1280 1334 1498 1588 1526 1452 1369 1355 1526 1784 1958 2083 2145 2144 2234 2280 2334 2375 2381 2314 2254 2271 2354 2339 2295 2250 2394 2533 2617 2698 2814 3040 3223 3285 3300 3319 3372
1017 1102 1091 967 873 856 808 808 807 987 895 845 1006 1158 1083 1042 1052 1191 1227 1350 1425 1402 1439 1615 1840 1921 1842 1730 1572 1616 1728 1741 1658 1535 1517 1603 1720 1932 2065 2125 2118 2171 2253 2333 2384 2361 2344 2370 2382 2375 2320 2278 2282 2384 2504 2684 2749 2863 3044 3158 3253 3243 3183
853 1037 1034 1044 988 920 974 1016 909 900 968 752 947 996 854 969 1142 1246 1237 1271 1351 1386 1405 1495 1745 2008 2067 1959 1840 1703 1685 1752 1784 1764 1648 1588 1628 1679 1804 1932 2046 2094 2119 2162 2194 2175 2156 2272 2419 2459 2386 2309 2280 2281 2365 2572 2752 2812 2964 3122 3218 3223 3053
559 731 762 652 691 998 1243 1182 1116 965 841 862 878 892 795 815 1104 1259 1310 1297 1221 1287 1348 1417 1590 1936 2137 2135 2073 1932 1800 1750 1780 1800 1773 1672 1622 1649 1664 1696 1732 1780 1818 1894 1984 2009 2010 1977 2020 2072 2173 2272 2256 2232 2230 2325 2561 2736 2867 3037 3146 3151 3058
74 437 392 526 664 641 624 972 1062 1032 1046 1072 920 756 808 772 773 1018 1283 1249 1258 1252 1247 1209 1375 1629 1992 2210 2266 2216 2117 2055 1968 1895 1873 1851 1774 1728 1718 1715 1693 1672 1625 1611 1638 1645 1674 1721 1582 1706 1933 2086 2179 2161 2149 2139 2205 2437 2614 2769 2924 2998 3010
451 543 540 522 560 455 466 600 517 684 938 1015 836 747 722 723 714 706 838 1112 1202 1242 1185 1104 1238 1177 1373 1872 2109 2261 2322 2289 2231 2168 2073 2005 1948 1880 1856 1864 1886 1861 1772 1708 1712 1739 1666 1511 1400 1358 1611 1734 1911 2072 2119 2123 2122 2191 2377 2543 2630 2683 2796
324 403 407 376 412 426 413 369 319 539 805 986 1092 958 855 838 656 771 813 714 772 885 987 1091 1050 1156 1272 1411 1443 1588 1811 2074 2220 2186 2055 1959 1979 1970 1932 1869 1849 1873 1853 1747 1719 1679 1624 1571 1445 1319 1372 1605 1711 1846 2005 2103 2136 2157 2216 2239 2259 2326 2464
115 306 417 404 357 325 298 254 240 340 412 552 894 1005 963 805 648 672 856 1052 1156 1195 1182 1235 1367 1210 1296 1486 1521 1462 1370 1362 1578 1707 1712 1672 1712 1775 1819 1755 1711 1640 1593 1540 1541 1480 1312 1268 1378 1320 1178 1295 1579 1712 1782 1842 1900 1916 1885 1853 1911 2008 2133
102 158 233 342 319 317 328 270 130 263 308 494 583 634 746 793 921 860 920 1120 1211 1211 1380 1452 1400 1391 1431 1438 1539 1647 1746 1726 1617 1477 1330 1462 1675 1805 1874 1947 2008 1898 1617 1383 1231 1102 971 976 986 1102 1156 1064 1169 1459 1639 1712 1748 1812 1786 1794 1850 1876 1923
75 109 138 222 268 293 338 320 293 168 234 314 590 584 416 905 1121 992 936 926 1038 1085 1209 1264 1249 1272 1308 1276 1192 1092 1139 1333 1386 1239 1130 1391 1672 1778 1799 1972 2124 2163 1896 1614 1358 1075 925 812 769 748 904 964 962 1092 1295 1473 1598 1680 1769 1826 1853 1877 1861
45 70 92 130 139 130 134 160 177 90 122 167 326 158 157 177 836 828 961 989 1101 1120 1123 1152 1160 1168 1205 1118 1068 990 1024 1080 1051 1095 1148 1273 1465 1695 1703 1730 1949 2117 2215 1725 1260 1126 1028 1042 807 635 652 746 789 858 1054 1211 1309 1384 1499 1626 1727 1788 1810
38 47 53 78 88 66 63 123 122 92 67 22 207 359 298 98 571 712 916 981 1211 1009 1106 1091 1075 1089 1074 1083 1036 1011 874 894 948 981 1130 1272 1379 1442 1413 1251 1199 1469 1628 1467 1062 1037 830 910 1079 1092 933 654 674 711 697 757 1146 1286 1339 1372 1411 1493 1566
0 9 43 45 58 40 80 77 92 98 118 0 1 117 304 312 296 511 486 370 761 940 960 1067 1129 1036 1015 1020 1050 1002 1029 1085 1025 1025 1200 1228 1216 1134 1186 1179 1252 1231 1210 1405 1168 1204 1259 1405 1479 1590 1479 1271 915 871 1061 1224 1352 1144 973 1076 1271 1365 1382
0 1 37 38 38 16 30 59 82 112 114 103 56 0 182 267 235 47 316 390 449 413 469 633 794 827 872 1037 1002 995 948 946 958 937 951 963 958 1019 1144 1096 1059 1051 1059 1174 1196 1116 1069 1113 1148 1093 1564 1816 1880 1727 1577 1502 1450 1474 1395 1347 1123 1010 1103
0 0 74 39 43 16 17 15 110 109 115 110 112 140 134 157 115 43 67 230 309 388 352 427 439 455 577 698 820 894 962 965 908 865 904 963 908 845 888 940 928 963 1051 1111 1145 1213 1257 1262 1286 1156 1117 1410 1543 1809 1902 1946 2004 1906 1652 1449 1386 1368 1234
0 0 0 54 45 28 4 34 46 133 149 154 152 189 174 170 173 188 128 46 210 226 306 328 239 282 371 427 505 563 627 684 673 682 664 700 738 872 930 815 831 861 874 991 1196 1234 1236 1238 1266 1254 1180 1122 1199 1292 1376 1443 1666 1911 2011 2046 1918 1699 1496
0 0 0 0 4 0 0 0 0 83 140 145 176 168 159 164 168 172 193 247 306 298 314 303 272 251 282 314 256 371 441 543 553 531 513 494 498 484 442 460 562 658 759 856 968 1008 1073 1015 989 1139 1216 1110 1251 1285 1268 1234 1310 1454 1593 1848 1982 2010 1922
0 0 0 0 0 0 0 0 0 0 108 148 175 181 175 183 172 196 244 247 258 306 260 222 222 203 113 196 223 258 291 375 416 438 473 502 523 496 411 415 493 563 598 584 658 728 762 774 806 917 952 1070 1186 1250 1215 1270 1294 1292 1290 1390 1535 1722 1931
0 0 0 0 0 0 0 0 0 0 0 3 35 81 108 6 6 6 6 6 6 7 8 8 8 9 154 189 203 220 192 200 235 276 305 348 385 425 464 468 368 464 587 643 632 632 626 629 597 679 748 838 955 1056 1124 1186 1212 1248 1291 1292 1268 1314 1443
0 0 0 0 0 0 0 0 0 0 0 0 0 0 0 0 0 0 0 0 0 0 0 0 0 0 0 0 0 0 0 0 43 60 78 70 71 97 90 114 168 312 460 562 679 682 679 610 557 525 595 638 644 766 907 984 1048 1139 1203 1259 1310 1268 1254
0 0 0 0 0 0 0 0 0 0 0 0 0 0 0 0 0 0 0 0 0 0 0 0 0 0 0 0 0 0 0 0 0 0 0 0 0 0 0 0 0 0 0 108 211 335 483 601 657 647 615 544 568 644 716 797 841 853 892 997 1152 1249 1258
35 0 0 0 0 0 0 0 0 0 0 0 0 0 0 0 0 0 0 0 0 0 0 0 0 0 0 0 0 0 0 0 0 0 0 0 0 0 0 0 0 0 0 0 0 0 0 182 345 450 544 629 628 602 616 632 641 679 743 776 844 931 1036
9 0 0 0 0 0 0 0 0 0 0 0 0 0 0 0 0 0 0 0 0 0 0 0 0 0 0 0 0 0 0 0 0 0 0 0 0 0 0 0 0 0 0 0 0 0 0 0 0 0 164 325 404 421 372 373 413 497 578 634 665 687 715
123 0 0 0 0 0 0 0 0 0 0 0 0 0 0 0 0 0 0 0 0 0 0 0 0 0 0 0 0 0 0 0 0 0 0 0 0 0 0 0 0 0 0 0 0 0 0 0 0 0 0 0 0 0 38 47 134 142 221 393 542 595 605
104 0 0 0 0 0 0 0 0 0 0 0 0 0 0 0 0 0 0 0 0 0 0 0 0 0 0 0 0 0 0 0 0 0 0 0 0 0 0 0 0 0 0 0 0 0 0 0 0 0 0 0 0 0 0 0 0 0 0 14 106 235 362
0 0 0 0 0 0 0 0 0 0 0 0 0 0 0 0 0 0 0 0 0 0 0 0 0 0 0 0 0 0 0 0 0 0 0 0 0 0 0 0 0 0 0 0 0 0 0 0 0 0 0 0 0 0 0 0 0 0 0 0 0 0 0
0 0 0 0 0 0 0 0 0 0 0 0 0 0 0 0 0 0 0 0 0 0 0 0 0 0 0 0 0 0 0 0 0 0 0 0 0 0 0 0 0 0 0 0 0 0 0 0 0 0 0 0 0 0 0 0 0 0 0 0 0 0 0
0 0 0 0 0 0 0 0 0 0 0 0 0 0 0 0 0 0 0 0 0 0 0 0 0 0 0 0 0 0 1 0 0 0 0 0 0 0 0 0 0 0 0 0 0 0 0 0 0 0 0 0 0 0 0 0 0 0 0 0 0 0 0
0 0 0 0 0 0 0 0 0 0 0 0 0 0 0 0 0 0 0 0 0 0 0 0 0 0 0 0 0 1 0 0 0 0 0 0 0 0 0 0 0 0 0 0 0 0 0 0 0 0 0 0 0 0 0 0 0 0 0 0 0 0 0
0 0 0 0 0 0 0 0 0 0 0 0 0 0 0 0 0 0 0 0 0 0 0 0 0 0 0 0 0 0 0 0 0 0 0 0 0 0 0 0 0 0 0 0 0 0 0 0 0 0 0 0 0 0 0 0 0 0 0 0 0 0 0
0 0 0 0 0 0 0 0 0 0 0 0 0 0 0 0 0 0 0 0 0 0 0 0 0 0 0 0 0 0 0 0 0 0 0 0 0 0 0 0 0 0 0 0 0 0 0 0 0 0 0 0 0 0 0 0 0 0 0 0 0 0 0
Wind_Speed
23 19 18 20 15 nan nan nan nan nan nan nan nan nan 12 13 12 11 10 9 7 6 6 6 6 8 7 8 9 9 8 8 8 7 6 7 9 10 10 11 10 10 10 9 10 9 11 11 11 10 11 11 11 11 12 12 13 12 12 12 11 11 11
23 22 22 24 22 15 nan nan nan nan nan nan nan nan 12 13 14 13 12 10 8 7 6 6 6 7 7 7 9 9 9 8 8 8 7 7 9 10 9 9 9 9 9 10 9 10 10 10 10 9 10 10 10 10 10 11 11 11 10 10 10 10 11
28 27 27 22 20 18 nan nan nan nan nan nan nan nan 11 13 14 13 13 12 10 9 8 6 6 6 7 8 9 8 8 9 9 8 7 6 6 6 8 9 9 9 8 9 10 9 10 9 9 9 8 8 9 9 9 9 9 9 9 8 8 8 9
24 26 23 23 25 27 24 21 19 17 nan nan nan nan 10 12 13 13 13 12 11 11 9 8 7 7 8 8 8 8 8 9 9 9 8 7 6 7 7 8 9 11 9 8 8 8 8 8 7 8 7 7 7 8 8 7 7 7 7 7 7 7 7
25 28 30 31 31 25 22 20 21 23 22 nan nan nan 11 12 12 13 14 13 13 12 10 9 9 10 10 10 10 9 8 8 10 10 10 9 9 9 8 6 7 8 8 9 9 8 8 7 7 6 6 6 6 6 6 7 6 6 6 7 6 7 6
23 24 26 25 22 24 26 25 22 22 22 20 18 16 14 14 14 11 12 13 13 14 15 14 12 12 11 10 10 10 10 10 10 11 11 10 11 10 9 8 7 8 9 7 9 9 8 8 7 6 5 5 4 4 5 5 6 6 6 7 6 6 6
24 24 25 25 26 25 26 27 25 20 20 23 26 24 19 15 12 11 13 13 15 15 16 15 13 13 13 13 12 11 9 9 11 11 12 12 12 11 10 10 9 8 7 10 9 9 9 8 8 7 6 5 4 4 4 4 4 6 7 7 6 6 6
27 26 28 28 27 28 26 27 27 24 22 25 28 28 25 19 16 15 15 16 16 16 15 15 16 16 18 17 16 14 11 10 11 11 12 12 12 11 11 11 11 10 10 8 8 9 7 7 8 8 7 6 5 5 4 5 5 6 7 7 6 6 7
31 31 30 29 28 28 28 29 29 29 29 28 28 28 27 25 25 23 20 19 19 20 20 20 21 22 22 20 19 17 15 13 11 11 11 11 13 11 11 12 12 13 11 9 8 9 8 7 7 7 7 6 6 5 5 5 6 7 8 8 7 7 8
32 32 32 31 29 29 30 31 32 34 35 33 27 25 26 26 26 25 23 22 23 24 24 25 25 24 23 22 20 19 18 14 13 11 10 11 12 11 11 12 12 13 12 10 10 9 8 7 7 7 7 6 6 6 5 5 6 7 8 8 8 8 8
33 31 29 29 27 27 28 30 33 32 30 25 21 21 23 24 25 26 27 28 28 28 28 27 26 25 24 22 22 21 19 17 15 14 12 10 11 10 11 11 11 13 12 12 10 10 10 9 9 8 8 7 6 6 6 5 6 6 7 7 8 8 9
nan 27 27 28 26 27 29 29 30 31 29 26 23 24 26 26 26 25 26 29 30 31 30 28 26 22 21 21 21 19 19 18 18 15 13 12 11 10 10 11 12 12 12 12 10 10 10 10 10 10 9 8 7 7 7 7 7 6 6 6 8 9 9
36 30 30 31 29 27 26 27 29 29 28 26 26 26 26 24 23 25 27 26 26 28 29 27 25 25 22 23 21 21 20 20 19 18 16 15 15 15 16 15 15 15 14 14 13 12 11 11 11 11 10 8 8 8 8 8 9 8 7 8 9 9 10
42 39 35 33 33 31 29 28 28 28 27 26 27 28 28 26 25 25 25 25 22 23 25 26 23 21 22 25 25 23 22 21 21 22 24 24 22 21 20 19 19 18 18 18 16 15 14 15 14 13 12 10 9 8 9 10 10 10 10 10 10 10 10
39 41 38 36 36 33 31 31 30 29 27 26 27 29 29 28 25 24 26 27 26 24 23 26 27 25 26 28 29 30 29 26 25 27 27 28 30 29 28 28 28 29 27 23 20 17 16 17 17 17 16 15 13 12 12 12 11 12 12 11 10 10 9
36 37 35 34 35 35 34 33 33 32 31 29 27 27 29 28 24 24 27 29 30 29 27 27 30 32 32 32 33 34 33 31 30 29 29 32 33 35 32 28 26 26 25 25 26 26 23 19 17 16 16 16 16 16 15 14 15 12 7 9 10 10 9
nan 35 33 32 33 34 35 35 36 36 35 32 28 26 27 26 26 27 31 31 32 32 27 24 28 33 34 35 36 35 34 33 33 32 31 30 28 27 24 22 23 24 23 22 23 25 25 25 22 19 17 15 15 15 15 15 15 9 8 7 6 9 11
nan nan nan 34 34 34 35 37 38 nan 36 34 31 30 30 30 28 29 30 29 30 31 28 25 26 30 34 35 35 35 35 35 35 34 32 29 27 24 24 29 30 28 27 25 23 25 28 27 25 24 23 21 20 17 16 16 13 9 10 10 9 10 12
nan nan nan nan nan nan nan 38 38 nan nan nan 37 35 35 nan 30 29 26 24 25 27 29 27 25 27 31 32 33 35 35 36 36 36 35 33 30 31 33 34 34 31 29 28 29 30 29 28 28 26 24 22 21 21 22 22 20 15 11 10 11 11 13
nan nan nan nan nan nan nan nan nan nan 39 nan nan 39 38 38 37 33 30 29 27 29 29 28 24 23 25 27 30 32 34 34 35 36 36 35 36 35 35 35 34 32 30 29 32 31 30 30 31 30 27 25 23 22 22 22 23 23 18 14 12 12 15
nan nan nan nan nan nan nan nan nan 38 40 40 nan nan 38 39 38 nan 37 35 34 32 31 30 28 28 28 26 25 27 31 33 34 35 35 35 35 36 38 38 36 35 33 34 35 34 32 32 34 34 32 30 27 25 23 23 24 24 23 19 15 13 17
nan nan nan nan nan nan nan nan 37 38 39 38 40 39 38 37 37 nan nan 36 36 33 31 30 31 31 30 29 27 27 28 28 29 31 31 32 31 34 36 36 35 34 30 32 35 33 32 32 31 32 33 30 29 28 26 24 24 24 24 24 23 20 21
nan nan nan nan nan nan nan nan nan 37 38 40 40 39 38 37 37 37 37 nan 36 34 33 33 33 32 32 32 30 27 27 27 25 23 22 20 22 25 27 30 31 29 27 27 28 30 30 31 33 31 30 29 28 29 28 28 27 28 28 27 28 26 24
nan nan nan nan nan nan nan nan nan nan 40 41 42 40 38 38 38 38 37 37 36 35 34 34 33 32 31 29 28 27 29 30 30 28 23 20 19 19 17 18 20 23 24 26 27 28 28 29 33 34 32 28 29 29 30 30 35 39 36 34 31 26 25
nan nan nan nan nan nan nan nan nan nan 38 40 40 37 37 38 39 39 38 37 36 36 36 34 32 31 30 29 28 29 29 31 33 33 30 26 22 20 18 17 18 20 22 25 27 27 26 27 31 33 32 30 30 36 35 34 35 37 37 36 34 31 28
nan nan nan nan nan nan nan nan nan nan nan nan nan nan 36 nan nan nan nan nan nan nan nan nan nan nan 28 29 31 30 29 29 31 31 31 31 30 29 28 25 25 24 22 23 25 27 27 28 32 34 34 32 32 33 33 35 36 37 39 38 38 37 32
nan nan nan nan nan nan nan nan nan nan nan nan nan nan nan nan nan nan nan nan nan nan nan nan nan nan nan nan nan nan nan nan nan nan nan nan nan nan nan 34 33 31 30 28 27 28 27 27 28 32 31 29 30 32 33 34 36 36 42 43 45 44 41
nan nan nan nan nan nan nan nan nan nan nan nan nan nan nan nan nan nan nan nan nan nan nan nan nan nan nan nan nan nan nan nan nan nan nan nan nan nan nan nan nan nan nan 32 31 31 30 27 26 27 28 27 29 32 34 36 38 35 42 46 47 47 45
nan nan nan nan nan nan nan nan nan nan nan nan nan nan nan nan nan nan nan nan nan nan nan nan nan nan nan nan nan nan nan nan nan nan nan nan nan nan nan nan nan nan nan nan nan nan nan 32 29 27 27 26 27 29 32 34 34 38 38 42 44 44 44
nan nan nan nan nan nan nan nan nan nan nan nan nan nan nan nan nan nan nan nan nan nan nan nan nan nan nan nan nan nan nan nan nan nan nan nan nan nan nan nan nan nan nan nan nan nan nan nan nan nan 32 30 28 28 29 30 32 33 36 37 42 42 41
40 nan nan nan nan nan nan nan nan nan nan nan nan nan nan nan nan nan nan nan nan nan nan nan nan nan nan nan nan nan nan nan nan nan nan nan nan nan nan nan nan nan nan nan nan nan nan nan nan nan nan nan nan nan nan nan 30 31 32 37 39 39 38
42 nan nan nan nan nan nan nan nan nan nan nan nan nan nan nan nan nan nan nan nan nan nan nan nan nan nan nan nan nan nan nan nan nan nan nan nan nan nan nan nan nan nan nan nan nan nan nan nan nan nan nan nan nan nan nan nan nan nan nan 35 35 35
nan nan nan nan nan nan nan nan nan nan nan nan nan nan nan nan nan nan nan nan nan nan nan nan nan nan nan nan nan nan nan nan nan nan nan nan nan nan nan nan nan nan nan nan nan nan nan nan nan nan nan nan nan nan nan nan nan nan nan nan nan nan nan
nan nan nan nan nan nan nan nan nan nan nan nan nan nan nan nan nan nan nan nan nan nan nan nan nan nan nan nan nan nan nan nan nan nan nan nan nan nan nan nan nan nan nan nan nan nan nan nan nan nan nan nan nan nan nan nan nan nan nan nan nan nan nan
nan nan nan nan nan nan nan nan nan nan nan nan nan nan nan nan nan nan nan nan nan nan nan nan nan nan nan nan nan nan nan nan nan nan nan nan nan nan nan nan nan nan nan nan nan nan nan nan nan nan nan nan nan nan nan nan nan nan nan nan nan nan nan
nan nan nan nan nan nan nan nan nan nan nan nan nan nan nan nan nan nan nan nan nan nan nan nan nan nan nan nan nan nan nan nan nan nan nan nan nan nan nan nan nan nan nan nan nan nan nan nan nan nan nan nan nan nan nan nan nan nan nan nan nan nan nan
nan nan nan nan nan nan nan nan nan nan nan nan nan nan nan nan nan nan nan nan nan nan nan nan nan nan nan nan nan nan nan nan nan nan nan nan nan nan nan nan nan nan nan nan nan nan nan nan nan nan nan nan nan nan nan nan nan nan nan nan nan nan nan
nan nan nan nan nan nan nan nan nan nan nan nan nan nan nan nan nan nan nan nan nan nan nan nan nan nan nan nan nan nan nan nan nan nan nan nan nan nan nan nan nan nan nan nan nan nan nan nan nan nan nan nan nan nan nan nan nan nan nan nan nan nan nan
Wind_Direction
206 203 198 202 207 nan nan nan nan nan nan nan nan nan 230 227 223 223 224 230 236 231 211 217 228 225 222 209 204 200 198 205 206 204 199 188 179 174 168 165 162 159 163 158 154 158 158 166 166 164 169 167 165 164 164 163 162 163 164 168 171 170 166
201 198 203 202 208 208 nan nan nan nan nan nan nan nan 238 236 228 225 228 232 238 251 241 227 232 231 236 227 221 215 208 209 210 203 205 201 192 179 174 175 171 166 166 158 164 170 177 167 170 169 168 169 164 166 165 164 161 162 166 171 174 170 173
210 202 202 194 205 205 nan nan nan nan nan nan nan nan 249 245 238 236 235 235 236 240 239 241 237 243 240 240 237 228 224 221 217 217 215 215 208 197 185 185 183 182 170 170 173 178 182 177 173 174 174 171 168 168 168 167 164 163 168 177 177 175 173
234 224 209 192 199 201 201 211 214 215 nan nan nan nan 251 252 246 239 241 247 250 242 245 235 235 234 238 245 240 234 231 224 227 227 224 221 222 222 216 198 195 195 192 177 178 185 187 188 179 180 177 178 174 175 176 172 174 175 177 189 183 181 180
231 231 225 208 193 193 196 201 207 211 218 nan nan nan 240 250 253 242 233 236 244 251 248 247 233 224 224 235 232 230 230 231 226 224 226 226 227 232 234 225 215 206 198 196 195 197 195 196 192 192 186 186 185 190 182 184 189 195 196 202 195 193 186
239 235 233 230 214 191 191 199 205 211 220 232 239 242 242 245 241 246 244 240 235 236 235 234 235 232 232 231 235 232 224 222 227 226 227 229 235 238 237 236 233 219 212 204 208 203 207 206 205 208 207 204 204 209 208 202 202 217 216 219 210 204 198
220 219 222 224 226 214 195 204 211 219 218 220 222 226 239 247 248 245 244 240 235 241 239 235 228 232 232 235 235 240 239 230 228 228 227 228 233 239 241 241 241 235 221 217 211 214 213 215 211 215 220 222 223 234 241 237 234 237 238 238 229 221 215
220 219 219 219 222 223 206 207 213 211 213 219 222 228 234 232 231 235 237 238 240 240 240 240 233 227 226 228 230 232 237 235 235 237 233 232 233 236 239 242 245 243 235 226 216 223 221 221 220 221 227 228 225 237 249 256 263 263 264 263 255 244 241
217 219 222 222 226 225 218 214 214 214 214 218 223 223 231 227 224 226 234 238 235 238 232 233 232 227 227 228 227 225 228 231 233 241 245 243 239 238 239 243 246 246 248 241 227 226 227 230 234 236 240 238 238 240 245 257 263 264 269 273 274 270 261
219 221 221 221 221 220 221 223 221 219 215 215 216 222 228 233 232 231 234 236 235 234 231 227 226 229 233 233 232 228 229 228 227 231 237 243 244 245 242 243 246 249 250 246 239 235 227 230 240 248 253 256 255 256 255 258 260 264 267 272 272 269 269
227 218 219 224 226 220 220 229 233 230 234 227 219 219 224 232 239 244 242 233 226 224 225 227 225 225 226 234 239 234 232 230 230 227 224 227 235 239 245 247 248 250 252 248 240 235 234 228 234 244 252 261 266 269 269 268 268 268 268 264 262 261 259
nan 233 230 230 231 229 225 225 228 231 229 224 222 226 227 227 227 232 245 253 246 236 224 219 221 231 236 237 242 241 237 230 225 230 230 225 224 226 232 237 239 242 242 244 237 227 229 233 232 237 244 248 255 263 270 270 267 266 264 263 258 255 253
239 235 232 234 235 235 235 234 233 233 233 230 231 237 244 245 239 234 231 235 245 252 251 238 215 211 222 231 235 238 237 234 227 222 223 227 225 220 222 225 229 231 229 231 227 220 216 220 223 226 233 235 242 248 257 262 262 259 251 246 247 251 251
242 236 234 236 239 236 238 235 235 235 234 231 232 237 238 234 235 244 253 256 251 249 252 249 242 232 225 227 230 232 236 234 226 223 218 215 217 219 218 220 223 226 227 227 224 220 217 215 216 217 222 223 228 231 240 248 251 254 253 249 247 246 246
243 237 237 240 237 234 234 235 234 234 232 231 234 240 244 241 239 239 243 247 250 256 256 248 243 240 237 229 225 225 227 227 225 223 222 220 218 218 218 217 218 218 218 220 222 225 224 221 220 219 215 214 216 218 222 229 235 242 250 254 251 249 247
246 241 241 240 238 235 232 232 234 233 235 233 234 235 238 236 239 243 244 246 246 248 250 249 239 234 231 231 230 229 227 225 222 221 224 227 228 227 223 221 227 232 232 232 225 217 217 222 228 230 228 225 222 221 221 223 227 230 248 257 252 253 249
nan 242 240 238 238 236 233 233 235 236 236 237 234 235 236 238 236 236 243 243 244 244 246 247 240 231 227 228 231 231 230 229 225 222 224 229 231 234 235 237 233 235 236 235 235 235 231 223 222 222 226 235 238 234 230 229 231 238 244 246 253 243 241
nan nan nan 242 242 239 237 236 236 nan 242 241 239 236 236 234 230 235 239 242 241 241 242 243 239 234 229 226 228 231 233 234 232 228 226 228 227 221 221 226 231 228 223 221 227 238 240 233 228 224 221 222 225 231 234 235 237 246 251 255 254 247 236
nan nan nan nan nan nan nan 238 238 nan nan nan 241 239 238 nan 241 236 236 233 236 240 242 242 240 235 231 227 228 231 234 235 234 230 227 226 231 234 234 232 230 230 226 217 214 216 227 235 236 231 227 224 226 229 230 230 225 221 232 251 263 269 259
nan nan nan nan nan nan nan nan nan nan 239 nan nan 240 238 237 239 240 242 242 238 239 240 239 237 239 235 229 228 228 230 233 234 232 231 233 236 240 243 240 236 235 231 223 218 217 218 224 231 233 233 232 229 228 233 237 235 235 233 231 233 247 264
nan nan nan nan nan nan nan nan nan 235 234 235 nan nan 237 237 238 nan 242 243 245 246 249 248 243 240 238 233 229 225 225 229 234 234 233 235 240 240 241 237 233 232 232 229 225 224 227 230 232 230 228 228 232 230 229 234 241 237 238 237 243 247 258
nan nan nan nan nan nan nan nan 236 235 233 232 234 235 236 237 238 nan nan 243 246 248 248 250 248 244 241 239 235 227 220 220 224 228 229 231 234 238 238 237 234 231 231 233 231 231 235 238 239 235 228 220 226 234 230 229 223 228 234 237 234 242 248
nan nan nan nan nan nan nan nan nan 234 235 234 232 233 234 236 238 240 240 nan 244 247 246 245 245 246 248 251 245 231 226 224 223 225 229 230 235 236 236 238 236 231 233 235 235 240 243 245 245 238 229 224 224 230 235 233 228 224 227 232 236 244 245
nan nan nan nan nan nan nan nan nan nan 235 235 233 232 234 237 239 241 241 240 241 244 244 243 243 246 249 250 249 244 243 245 244 241 240 242 248 254 253 252 250 245 240 240 241 243 241 240 240 239 235 227 227 230 235 236 234 232 231 233 240 243 244
nan nan nan nan nan nan nan nan nan nan 237 235 233 230 234 237 239 240 240 240 241 242 242 241 239 240 241 242 245 249 250 251 252 253 253 254 258 260 258 257 256 249 242 238 238 239 245 243 240 238 238 235 231 229 231 236 238 236 236 235 239 247 252
nan nan nan nan nan nan nan nan nan nan nan nan nan nan 235 nan nan nan nan nan nan nan nan nan nan nan 245 245 249 250 248 249 251 254 257 259 259 257 256 255 254 253 252 243 236 238 240 240 238 238 236 233 231 233 233 236 237 237 236 239 238 242 246
nan nan nan nan nan nan nan nan nan nan nan nan nan nan nan nan nan nan nan nan nan nan nan nan nan nan nan nan nan nan nan nan nan nan nan nan nan nan nan 256 256 256 255 252 245 243 244 244 243 245 245 240 236 236 236 237 239 238 237 240 241 241 243
nan nan nan nan nan nan nan nan nan nan nan nan nan nan nan nan nan nan nan nan nan nan nan nan nan nan nan nan nan nan nan nan nan nan nan nan nan nan nan nan nan nan nan 256 252 247 246 247 248 250 251 249 245 242 241 238 238 242 243 248 247 244 244
nan nan nan nan nan nan nan nan nan nan nan nan nan nan nan nan nan nan nan nan nan nan nan nan nan nan nan nan nan nan nan nan nan nan nan nan nan nan nan nan nan nan nan nan nan nan nan 249 250 252 252 253 252 249 245 242 241 242 247 252 248 245 245
nan nan nan nan nan nan nan nan nan nan nan nan nan nan nan nan nan nan nan nan nan nan nan nan nan nan nan nan nan nan nan nan nan nan nan nan nan nan nan nan nan nan nan nan nan nan nan nan nan nan 252 251 251 251 250 248 246 244 243 252 249 245 242
245 nan nan nan nan nan nan nan nan nan nan nan nan nan nan nan nan nan nan nan nan nan nan nan nan nan nan nan nan nan nan nan nan nan nan nan nan nan nan nan nan nan nan nan nan nan nan nan nan nan nan nan nan nan nan nan 251 250 246 250 249 246 241
240 nan nan nan nan nan nan nan nan nan nan nan nan nan nan nan nan nan nan nan nan nan nan nan nan nan nan nan nan nan nan nan nan nan nan nan nan nan nan nan nan nan nan nan nan nan nan nan nan nan nan nan nan nan nan nan nan nan nan nan 243 245 242
nan nan nan nan nan nan nan nan nan nan nan nan nan nan nan nan nan nan nan nan nan nan nan nan nan nan nan nan nan nan nan nan nan nan nan nan nan nan nan nan nan nan nan nan nan nan nan nan nan nan nan nan nan nan nan nan nan nan nan nan nan nan nan
nan nan nan nan nan nan nan nan nan nan nan nan nan nan nan nan nan nan nan nan nan nan nan nan nan nan nan nan nan nan nan nan nan nan nan nan nan nan nan nan nan nan nan nan nan nan nan nan nan nan nan nan nan nan nan nan nan nan nan nan nan nan nan
nan nan nan nan nan nan nan nan nan nan nan nan nan nan nan nan nan nan nan nan nan nan nan nan nan nan nan nan nan nan nan nan nan nan nan nan nan nan nan nan nan nan nan nan nan nan nan nan nan nan nan nan nan nan nan nan nan nan nan nan nan nan nan
nan nan nan nan nan nan nan nan nan nan nan nan nan nan nan nan nan nan nan nan nan nan nan nan nan nan nan nan nan nan nan nan nan nan nan nan nan nan nan nan nan nan nan nan nan nan nan nan nan nan nan nan nan nan nan nan nan nan nan nan nan nan nan
nan nan nan nan nan nan nan nan nan nan nan nan nan nan nan nan nan nan nan nan nan nan nan nan nan nan nan nan nan nan nan nan nan nan nan nan nan nan nan nan nan nan nan nan nan nan nan nan nan nan nan nan nan nan nan nan nan nan nan nan nan nan nan
nan nan nan nan nan nan nan nan nan nan nan nan nan nan nan nan nan nan nan nan nan nan nan nan nan nan nan nan nan nan nan nan nan nan nan nan nan nan nan nan nan nan nan nan nan nan nan nan nan nan nan nan nan nan nan nan nan nan nan nan nan nan nan